Newburgh, NY

2:18 AM EDT on May 21, 2018 (GMT -0400)
Stewart International

Weather History for KSWF - November, 2012

Change the Weather History Date:

Monday, November 26, 2012

  Actual Average Record
Temperature  
Mean Temperature 36 °F -  
Max Temperature 44 °F 45 °F 63 °F (1979)
Min Temperature 28 °F 28 °F 9 °F (1993)
Degree Days  
Heating Degree Days 29    
Moisture  
Dew Point 22 °F    
Average Humidity 56    
Maximum Humidity 80    
Minimum Humidity 37    
Precipitation  
Precipitation 0.00 in - - ()
Sea Level Pressure  
Sea Level Pressure 30.08 in    
Wind  
Wind Speed 6 mph (WNW)    
Max Wind Speed 14 mph    
Max Gust Speed 28 mph    
Visibility 14 miles    
Events      
Averages and records for this station are not official NWS values.
T = Trace of Precipitation, MM = Missing Value Source: NWS Daily Summary

Daily Weather History Graph

Daily Weather History Graph

Search for Another Location

Airport or City:

Astronomy

Nov. 26, 2012 Rise Set
Actual Time 6:58 AM EST 4:29 PM EST
Civil Twilight 6:27 AM EST 4:59 PM EST
Nautical Twilight 5:53 AM EST 5:33 PM EST
Astronomical Twilight 5:20 AM EST 6:06 PM EST
Moon 3:20 PM EST (11/26) 5:05 AM EST (11/26)
Length of Visible Light 10h 31m
Length of Day
9h 30m
Waxing Gibbous, 97% of the Moon is Illuminated
Nov 26
Waxing Gibbous
Nov 28
Full
Dec 6
Last Quarter
Dec 13
New
Dec 20
First Quarter

Hourly Weather History & Observations

Time (EST) Temp. Windchill Dew Point Humidity Pressure Visibility Wind Dir Wind Speed Gust Speed Precip Events Conditions
12:45 AM 33.8 °F - 23.0 °F 65% 29.92 in 10.0 mi Calm Calm - N/A   Overcast
1:45 AM 33.8 °F - 23.0 °F 65% 29.92 in 10.0 mi Calm Calm - N/A   Overcast
2:45 AM 35.6 °F 28.6 °F 23.0 °F 60% 29.94 in 10.0 mi WSW 9.2 mph - N/A   Overcast
3:45 AM 35.6 °F 28.6 °F 23.0 °F 60% 29.94 in 10.0 mi WSW 9.2 mph - N/A   Overcast
4:45 AM 35.6 °F 28.6 °F 23.0 °F 60% 29.96 in 10.0 mi West 9.2 mph - N/A   Overcast
6:50 AM 37.4 °F 29.8 °F 23.0 °F 56% 30.00 in 10.0 mi West 11.5 mph - N/A   Mostly Cloudy
7:45 AM 37.4 °F 30.8 °F 23.0 °F 56% 30.03 in 20.0 mi West 9.2 mph - N/A   Clear
8:45 AM 39.2 °F 31.2 °F 24.8 °F 56% 30.05 in 20.0 mi West 13.8 mph - N/A   Clear
9:45 AM 41.0 °F 33.5 °F 23.0 °F 49% 30.07 in 20.0 mi WNW 13.8 mph 27.6 mph N/A   Clear
10:45 AM 42.8 °F 37.0 °F 23.0 °F 46% 30.09 in 20.0 mi WNW 10.4 mph 23.0 mph N/A   Partly Cloudy
11:45 AM 42.8 °F 36.6 °F 23.0 °F 46% 30.09 in 20.0 mi NW 11.5 mph 23.0 mph N/A   Scattered Clouds
1:45 PM 44.6 °F 38.8 °F 19.4 °F 37% 30.10 in 20.0 mi NW 11.5 mph 18.4 mph N/A   Partly Cloudy
2:45 PM 44.6 °F 38.8 °F 19.4 °F 37% 30.10 in 20.0 mi NW 11.5 mph 18.4 mph N/A   Partly Cloudy
3:45 PM 42.8 °F 36.6 °F 19.4 °F 39% 30.14 in 20.0 mi WNW 11.5 mph 17.3 mph N/A   Partly Cloudy
4:45 PM 41.0 °F 36.4 °F 19.4 °F 42% 30.15 in 20.0 mi WNW 6.9 mph - N/A   Partly Cloudy
5:45 PM 39.2 °F 35.0 °F 19.4 °F 45% 30.13 in 10.0 mi WNW 5.8 mph - N/A   Clear
6:45 PM 33.8 °F 28.6 °F 21.2 °F 60% 30.19 in 10.0 mi WNW 5.8 mph - N/A   Clear
7:45 PM 30.2 °F - 21.2 °F 69% 30.22 in 10.0 mi Calm Calm - N/A   Clear
8:45 PM 28.4 °F - 23.0 °F 80% 30.23 in 10.0 mi Calm Calm - N/A   Clear
9:45 PM 28.4 °F - 21.2 °F 74% 30.24 in 10.0 mi Calm Calm - N/A   Clear
11:45 PM 30.2 °F - 23.0 °F 75% 30.25 in 15.0 mi Calm Calm - N/A   Mostly Cloudy